Location: Aubervilles
(48.9167°N, 2.3833°E)
Time: 11:05:25
(UTC+00:00)

Lacrosse 5 rocket - Pass Details

Date: 03 February 2023
Orbit: 455 x 612 km, 57.0° (Epoch: 29 March)

Event Time Altitude Azimuth Distance (km) Brightness Sun altitude
Rises 17:50:31 0° 305° (NW) 2,478 5.3 -10.1°
Reaches altitude 10° 17:52:42 10° 312° (NW) 1,608 4.2 -10.5°
Maximum altitude 17:56:10 44° 26° (NNE) 653 1.4 -11.0°
Enters shadow 17:58:45 17° 95° (E) 1,287 2.6 -11.4°
